Location: Newark
(44.3333°N, 7.6167°E)
Time: 00:08:56
(UTC+00:00)

ZACube-1 - Visible Passes

Search period start: 24 January 2020 00:00
Search period end: 03 February 2020 00:00
Orbit: 583 x 667 km, 97.6° (Epoch: 23 January)

Date Brightness Start Highest point End Pass type
(mag) Time Alt. Az. Time Alt. Az. Time Alt. Az.
24 Jan ? 05:13:30 10° NNE 05:17:39 42° E 05:21:53 10° S visible
24 Jan ? 17:47:53 10° SW 17:50:52 19° W 17:53:53 10° NW visible
25 Jan ? 05:32:17 10° NNE 05:36:39 68° E 05:41:06 10° S visible
25 Jan ? 18:08:23 10° WSW 18:10:01 12° W 18:11:40 10° WNW visible
26 Jan ? 04:17:40 10° ENE 04:18:53 11° E 04:20:07 10° ESE visible
26 Jan ? 05:51:14 10° N 05:55:37 76° WNW 06:00:04 10° SSW visible
27 Jan ? 04:35:04 10° NE 04:38:03 18° E 04:41:03 10° SE visible
27 Jan ? 06:10:18 10° N 06:14:31 48° WNW 06:18:50 10° SW visible
27 Jan ? 17:07:14 10° S 17:11:15 50° W 17:15:19 10° NNW visible
28 Jan ? 04:53:23 10° NE 04:57:09 27° E 05:00:58 10° SSE visible
28 Jan ? 17:26:37 10° SSW 17:30:17 31° W 17:34:01 10° NNW visible
29 Jan ? 05:11:59 10° NNE 05:16:13 42° E 05:20:29 10° S visible
29 Jan ? 17:46:20 10° SW 17:49:22 20° W 17:52:27 10° NW visible
30 Jan ? 05:30:47 10° NNE 05:35:13 68° E 05:39:43 10° S visible
30 Jan ? 18:06:45 10° WSW 18:08:31 12° W 18:10:18 10° WNW visible
31 Jan ? 04:16:07 10° ENE 04:17:26 11° E 04:18:44 10° ESE visible
31 Jan ? 05:49:43 10° N 05:54:10 77° WNW 05:58:41 10° SSW visible
01 Feb ? 04:33:34 10° NE 04:36:36 18° E 04:39:38 10° SE visible
01 Feb ? 06:08:47 10° N 06:13:05 49° WNW 06:17:26 10° SSW visible
01 Feb ? 17:05:42 10° S 17:09:44 51° W 17:13:52 10° NNW visible
02 Feb ? 04:51:53 10° NE 04:55:42 27° E 04:59:34 10° SSE visible
02 Feb ? 17:25:03 10° SSW 17:28:46 31° W 17:32:34 10° NNW visible
